Location: Härggis
(46.9540°N, 8.4897°E)
Time: 21:16:57
(UTC+00:00)

Cosmos 2219 Rocket - Pass Details

Date: 27 May 2022
Orbit: 827 x 847 km, 71.0° (Epoch: 02 July)

Event Time Altitude Azimuth Distance (km) Brightness Sun altitude
Exits shadow 00:26:39 13° 258° (WSW) 2,194 4.1 -20.3°
Maximum altitude 00:30:36 28° 311° (NW) 1,512 3.7 -20.1°
Drops below altitude 10° 00:35:24 10° 10° (N) 2,446 5.8 -19.9°
Sets 00:38:12 0° 22° (NNE) 3,386 7.0 -19.7°
